Weather History for KLBL - September, 2013

Change the Weather History Date:

Tuesday, September 10, 2013

  Actual Average Record
Temperature  
Mean Temperature 78 °F -  
Max Temperature 91 °F 88 °F 99 °F (1956)
Min Temperature 66 °F 59 °F 45 °F (1962)
Cooling Degree Days 14    
Growing Degree Days 28 (Base 50)    
Moisture  
Dew Point 56 °F    
Average Humidity 48    
Maximum Humidity 68    
Minimum Humidity 31    
Precipitation  
Precipitation 0.00 in - - ()
Sea Level Pressure  
Sea Level Pressure 30.06 in    
Wind  
Wind Speed 14 mph (South)    
Max Wind Speed 22 mph    
Max Gust Speed 32 mph    
Visibility 10 miles    
Events      
Averages and records for this station are not official NWS values.
T = Trace of Precipitation, MM = Missing Value Source: NWS Daily Summary

Daily Weather History Graph

Daily Weather History Graph

Search for Another Location

Airport or City:

Trip Planner

Search our weather history database for the weather conditions in past years. The results will help you decide how hot, cold, wet, or windy it might be!

Date:

Astronomy

Sep. 10, 2013 Rise Set
Actual Time 7:22 AM CDT 7:58 PM CDT
Civil Twilight 6:55 AM CDT 8:24 PM CDT
Nautical Twilight 6:25 AM CDT 8:55 PM CDT
Astronomical Twilight 5:53 AM CDT 9:27 PM CDT
Moon 12:41 PM CDT (9/10) 11:11 PM CDT (9/10)
Length of Visible Light 13h 28m
Length of Day
12h 36m
Waxing Crescent, 28% of the Moon is Illuminated
Sep 10
Waxing Crescent
Sep 12
First Quarter
Sep 19
Full
Sep 26
Last Quarter
Oct 4
New

Hourly Weather History & Observations

Time (CDT) Temp. Heat Index Dew Point Humidity Pressure Visibility Wind Dir Wind Speed Gust Speed Precip Events Conditions
12:15 AM 77.0 °F - 53.6 °F 44% 29.99 in 10.0 mi South 16.1 mph - N/A   Clear
12:35 AM 77.0 °F - 53.6 °F 44% 29.99 in 10.0 mi South 16.1 mph - N/A   Clear
12:55 AM 75.2 °F - 53.6 °F 47% 29.99 in 10.0 mi South 16.1 mph - N/A   Clear
1:15 AM 75.2 °F - 53.6 °F 47% 30.00 in 10.0 mi South 12.7 mph - N/A   Clear
1:35 AM 75.2 °F - 53.6 °F 47% 30.00 in 10.0 mi South 15.0 mph - N/A   Clear
1:55 AM 75.2 °F - 53.6 °F 47% 30.00 in 10.0 mi South 15.0 mph - N/A   Clear
2:15 AM 73.4 °F - 53.6 °F 50% 30.00 in 10.0 mi South 13.8 mph - N/A   Clear
2:35 AM 73.4 °F - 53.6 °F 50% 30.00 in 10.0 mi South 12.7 mph - N/A   Clear
2:55 AM 73.4 °F - 53.6 °F 50% 30.01 in 10.0 mi South 11.5 mph - N/A   Clear
3:15 AM 71.6 °F - 53.6 °F 53% 30.02 in 10.0 mi South 10.4 mph - N/A   Clear
3:35 AM 71.6 °F - 53.6 °F 53% 30.01 in 10.0 mi South 9.2 mph - N/A   Clear
3:55 AM 69.8 °F - 53.6 °F 56% 30.01 in 10.0 mi South 9.2 mph - N/A   Clear
4:15 AM 69.8 °F - 53.6 °F 56% 30.01 in 10.0 mi South 9.2 mph - N/A   Clear
4:35 AM 69.8 °F - 53.6 °F 56% 30.01 in 10.0 mi South 9.2 mph - N/A   Clear
4:55 AM 68.0 °F - 53.6 °F 60% 30.02 in 10.0 mi South 8.1 mph - N/A   Clear
5:15 AM 66.2 °F - 53.6 °F 64% 30.02 in 10.0 mi South 8.1 mph - N/A   Clear
5:35 AM 66.2 °F - 53.6 °F 64% 30.02 in 10.0 mi South 9.2 mph - N/A   Clear
5:55 AM 66.2 °F - 53.6 °F 64% 30.03 in 10.0 mi South 9.2 mph - N/A   Clear
6:15 AM 66.2 °F - 53.6 °F 64% 30.03 in 10.0 mi South 8.1 mph - N/A   Clear
6:35 AM 66.2 °F - 53.6 °F 64% 30.04 in 10.0 mi South 9.2 mph - N/A   Clear
6:55 AM 66.2 °F - 53.6 °F 64% 30.05 in 10.0 mi South 8.1 mph - N/A   Clear
7:15 AM 66.2 °F - 53.6 °F 64% 30.05 in 10.0 mi South 9.2 mph - N/A   Clear
7:35 AM 66.2 °F - 53.6 °F 64% 30.06 in 10.0 mi South 9.2 mph - N/A   Clear
7:55 AM 66.2 °F - 55.4 °F 68% 30.06 in 10.0 mi South 8.1 mph - N/A   Clear
8:15 AM 69.8 °F - 55.4 °F 60% 30.07 in 10.0 mi South 10.4 mph - N/A   Clear
8:35 AM 71.6 °F - 57.2 °F 60% 30.07 in 10.0 mi South 15.0 mph - N/A   Clear
8:55 AM 73.4 °F - 57.2 °F 57% 30.07 in 10.0 mi SSW 13.8 mph 18.4 mph N/A   Clear
9:15 AM 75.2 °F - 59.0 °F 57% 30.09 in 10.0 mi SSW 16.1 mph - N/A   Clear
9:35 AM 78.8 °F - 59.0 °F 51% 30.09 in 10.0 mi SSW 18.4 mph - N/A   Clear
9:55 AM 78.8 °F - 59.0 °F 51% 30.09 in 10.0 mi SSW 18.4 mph - N/A   Clear
10:15 AM 80.6 °F 81.1 °F 59.0 °F 48% 30.10 in 10.0 mi South 19.6 mph - N/A   Clear
10:35 AM 82.4 °F 82.5 °F 59.0 °F 45% 30.10 in 10.0 mi SSW 17.3 mph 24.2 mph N/A   Clear
10:55 AM 84.2 °F 83.8 °F 59.0 °F 42% 30.10 in 10.0 mi SSW 19.6 mph 24.2 mph N/A   Clear
11:15 AM 84.2 °F 83.8 °F 59.0 °F 42% 30.11 in 10.0 mi SW 18.4 mph 23.0 mph N/A   Clear
11:35 AM 86.0 °F 85.4 °F 59.0 °F 40% 30.11 in 10.0 mi SW 18.4 mph 24.2 mph N/A   Clear
11:55 AM 87.8 °F 87.1 °F 59.0 °F 38% 30.10 in 10.0 mi SW 15.0 mph 23.0 mph N/A   Clear
12:15 PM 87.8 °F 87.1 °F 59.0 °F 38% 30.11 in 10.0 mi SSW 13.8 mph 24.2 mph N/A   Partly Cloudy
12:35 PM 87.8 °F 87.1 °F 59.0 °F 38% 30.10 in 10.0 mi SSW 12.7 mph 23.0 mph N/A   Partly Cloudy
12:55 PM 87.8 °F 86.5 °F 57.2 °F 35% 30.10 in 10.0 mi SW 15.0 mph 23.0 mph N/A   Partly Cloudy
1:15 PM 89.6 °F 88.9 °F 59.0 °F 36% 30.09 in 10.0 mi SSW 16.1 mph 25.3 mph N/A   Scattered Clouds
1:35 PM 87.8 °F 86.5 °F 57.2 °F 35% 30.09 in 10.0 mi SSW 15.0 mph 23.0 mph N/A   Partly Cloudy
1:55 PM 89.6 °F 88.9 °F 59.0 °F 36% 30.08 in 10.0 mi South 13.8 mph 23.0 mph N/A   Partly Cloudy
2:15 PM 91.4 °F 89.9 °F 57.2 °F 31% 30.08 in 10.0 mi SSE 16.1 mph 21.9 mph N/A   Partly Cloudy
2:35 PM 91.4 °F 89.9 °F 57.2 °F 31% 30.07 in 10.0 mi South 17.3 mph 24.2 mph N/A   Partly Cloudy
2:55 PM 91.4 °F 89.9 °F 57.2 °F 31% 30.07 in 10.0 mi SSW 18.4 mph 24.2 mph N/A   Scattered Clouds
3:15 PM 89.6 °F 87.7 °F 55.4 °F 31% 30.05 in 10.0 mi SSE 21.9 mph 28.8 mph N/A   Partly Cloudy
3:35 PM 89.6 °F 88.1 °F 57.2 °F 33% 30.06 in 10.0 mi SSE 19.6 mph 26.5 mph N/A   Clear
3:55 PM 89.6 °F 88.1 °F 57.2 °F 33% 30.06 in 10.0 mi South 17.3 mph 29.9 mph N/A   Clear
4:15 PM 89.6 °F 88.1 °F 57.2 °F 33% 30.05 in 10.0 mi South 18.4 mph 26.5 mph N/A   Clear
4:35 PM 89.6 °F 88.1 °F 57.2 °F 33% 30.04 in 10.0 mi SE 19.6 mph 32.2 mph N/A   Partly Cloudy
4:55 PM 89.6 °F 88.1 °F 57.2 °F 33% 30.04 in 10.0 mi SSE 21.9 mph 26.5 mph N/A   Partly Cloudy
5:15 PM 86.0 °F 84.9 °F 57.2 °F 37% 30.04 in 10.0 mi SSE 17.3 mph - N/A   Clear
5:35 PM 87.8 °F 86.5 °F 57.2 °F 35% 30.04 in 10.0 mi SSE 19.6 mph 28.8 mph N/A   Clear
5:55 PM 87.8 °F 86.5 °F 57.2 °F 35% 30.04 in 10.0 mi SSE 19.6 mph 26.5 mph N/A   Partly Cloudy
6:15 PM 87.8 °F 86.1 °F 55.4 °F 33% 30.04 in 10.0 mi SSE 19.6 mph 26.5 mph N/A   Partly Cloudy
6:35 PM 87.8 °F 86.1 °F 55.4 °F 33% 30.03 in 10.0 mi SSE 18.4 mph 26.5 mph N/A   Clear
6:55 PM 86.0 °F 84.5 °F 55.4 °F 35% 30.04 in 10.0 mi SSE 17.3 mph 24.2 mph N/A   Clear
7:15 PM 84.2 °F 83.0 °F 55.4 °F 37% 30.06 in 10.0 mi South 15.0 mph - N/A   Clear
7:35 PM 80.6 °F 80.8 °F 57.2 °F 45% 30.07 in 10.0 mi SW 15.0 mph 21.9 mph N/A   Mostly Cloudy
7:55 PM 77.0 °F - 57.2 °F 50% 30.07 in 10.0 mi SW 12.7 mph - N/A   Scattered Clouds
8:15 PM 77.0 °F - 57.2 °F 50% 30.07 in 10.0 mi SSW 5.8 mph - N/A   Clear
8:35 PM 75.2 °F - 57.2 °F 53% 30.08 in 10.0 mi South 5.8 mph - N/A   Clear
8:55 PM 75.2 °F - 57.2 °F 53% 30.09 in 10.0 mi South 4.6 mph - N/A   Clear
9:15 PM 73.4 °F - 57.2 °F 57% 30.10 in 10.0 mi South 3.5 mph - N/A   Clear
9:35 PM 73.4 °F - 57.2 °F 57% 30.11 in 10.0 mi SSW 5.8 mph - N/A   Clear
9:55 PM 73.4 °F - 57.2 °F 57% 30.11 in 10.0 mi SSW 3.5 mph - N/A   Clear
10:15 PM 73.4 °F - 57.2 °F 57% 30.12 in 10.0 mi SSE 5.8 mph - N/A   Clear
10:35 PM 73.4 °F - 57.2 °F 57% 30.12 in 10.0 mi SSE 6.9 mph - N/A   Clear
10:55 PM 73.4 °F - 55.4 °F 53% 30.12 in 10.0 mi SSE 8.1 mph - N/A   Clear
11:15 PM 73.4 °F - 55.4 °F 53% 30.13 in 10.0 mi SSE 9.2 mph - N/A   Clear
11:35 PM 73.4 °F - 55.4 °F 53% 30.13 in 10.0 mi SSE 8.1 mph - N/A   Clear
11:55 PM 73.4 °F - 57.2 °F 57% 30.13 in 10.0 mi SSE 9.2 mph - N/A   Clear